Погода в Эрбиле

Ирак     36°11′19″N   44°01′08″E
темп.,
°C
ветер,
м/с
пор.,
м/с
влажн.,
%
обл.,
%
осадки,
мм/ч
давл.,
гПа
погр.,
м
9 мая, вс
вс900:00+24св22300 0.0 100911
03:00+23св22315 0.0 100911
06:00+23всв11335 0.0 100911
09:00+29юз33225 0.0 1009671
12:00+33зюз44145 0.0 10081818
15:00+34зсз57145 0.0 10062359
18:00+32зюз011922 0.0 100511
21:00+27вюв11225 0.0 100511
10 мая, пн
пн1000:00+25вюв22234 0.0 100511
03:00+24юв22234 0.0 100512
06:00+24юв33250 0.0 100635
09:00+30юз45190 0.0 1006758
12:00+32зюз58180 0.0 10061728
15:00+33зюз68150 0.0 10052698
18:00+31зюз71090 0.0 1004537
21:00+24ююз22160 0.0 100618
11 мая, вт
вт1100:00+21вюв11190 0.0 100711
03:00+20ююв1122100 0.0 100711
06:00+21св2222100 0.0 100712
09:00+28ююз33142 0.0 1008810
12:00+31зюз56120 0.0 10081770
15:00+32з55110 0.0 10072153
18:00+29зсз46130 0.0 1007164
21:00+24всв33150 0.0 100916
12 мая, ср
ср1200:00+23всв211626 0.0 100911
03:00+22св22170 0.0 100813
06:00+22св23185 0.0 100924
09:00+31ссв1210100 0.0 1010852
12:00+34с3510100 0.0 10082568
15:00+35зсз2510100 0.0 10073792
18:00+31з451795 0.1 1007115
21:00+27ссв44205 0.1 100839
13 мая, чт
чт1300:00+26св332019 0.0 100815
03:00+25св22213 0.0 100814
06:00+26св222285 0.0 100815
09:00+32зсз211423 0.0 1009591
12:00+36з44110 0.0 10084006
15:00+37з5490 0.0 10064157
18:00+34зсз35100 0.0 100696
21:00+28св33150 0.0 100819